Weather Roundup
Issued by NWS Corpus Christi, TX

Home | Current Version | Previous Version | Text Only | Print | Product List | Glossary On
Versions: 1 2 3 4 5 6 7 8 9 10 11 12 13 14 15 16 17 18 19 20 21 22 23 24 25 26 27 28 29 30 31 32 33 34 35 36 37 38 39 40 41 42 43 44 45 46 47 48 49 50
000
ASUS44 KCRP 291810
HRRCRP

SOUTH TEXAS REGIONAL WEATHER ROUNDUP
NATIONAL WEATHER SERVICE CORPUS CHRISTI TX
100 PM CDT SUN MAR 29 2015


TXZ229>244-291900-
...CORPUS CHRISTI AREA OBSERVATIONS...

CITY           SKY/WX    TMP DP  RH WIND       PRES   REMARKS
CORPUS CHRISTI MOSUNNY   77  64  64 S26G32    30.13F
NAS CORPUS CHR SUNNY     77  65  66 S25G35    30.15S
ROCKPORT       SUNNY     77  63  61 S13G25    30.15F
KINGSVILLE NAS SUNNY     82  62  50 S15G30    30.12F
ALICE          SUNNY     83  59  44 S16G24    30.11F
FALFURRIAS     SUNNY     81  61  50 S15G24    30.11F
$$

...VICTORIA AREA OBSERVATIONS...

CITY           SKY/WX    TMP DP  RH WIND       PRES   REMARKS
VICTORIA       SUNNY     78  59  51 S24G30    30.15F
BEEVILLE       FAIR      78  63  59 S15G23    30.13F
PLEASANTON     SUNNY     78  58  50 S14G21    30.12F
SAN ANTONIO    SUNNY     76  57  51 S13       30.12F
$$

...LAREDO AREA OBSERVATIONS...

CITY           SKY/WX    TMP DP  RH WIND       PRES   REMARKS
LAREDO         SUNNY     81  59  47 SE15      30.10F
COTULLA        MOSUNNY   81  57  43 S10       30.09F
DEL RIO        SUNNY     76  55  48 S8        30.06F
MCALLEN        SUNNY     85  60  42 S23G30    30.12F
HEBBRONVILLE   NOT AVBL
$$

...OTHER TEXAS OBSERVATIONS...

CITY           SKY/WX    TMP DP  RH WIND       PRES   REMARKS
BROWNSVILLE    PTSUNNY   78  64  61 S20G35    30.16F
HOUSTON        MOSUNNY   78  61  55 S15G22    30.17S
COL. STATION   SUNNY     78  54  43 S16G25    30.13F
AUSTIN         SUNNY     77  60  55 S20G26    30.10F
WACO           SUNNY     76  59  55 S22       30.07F
FORT WORTH     SUNNY     76  53  44 S21G30    30.00F
WICHITA FALLS  SUNNY     80  50  34 SW12      29.95S
LUBBOCK        SUNNY     82  30  15 N31G41    30.08R
EL PASO        SUNNY     78   7   6 SE3       30.20S
$$

...MARINE OBSERVATIONS...

STATION/POSITION TIME  SKY/WX   TEMP    WIND        PRES    VSBY  WAVE   SWELL
                                AIR SEA DIR/SP/G                  HT/PER HT/PER
                 (UTC)          (F)     (DEG/KT/KT) (MB)    (MI)  (FT/S) (FT/S)
PORT ARANSAS     1800            69 67  150/ 14/ 16 1021.9F
BUOY 90 E PORT A 1800            72 70  170/ 14/ 16 1022.5F         4/ 6
BUOY 45 SE BAFFI 1800            71 71  170/ 16/ 19 1020.9F         4/ 6
BUOY 200 E PT IS 1800            74 73  150/ 14/ 16 1023.9F         3/ 5
BUOY 15 E GALVES 1800            68 67  160/ 10/ 10 1022.5F         3/ 6   3/ 6
$$



USA.gov is the U.S. government's official web portal to all federal, state and local government web resources and services.